Regional Weather Roundup
Issued by NWS Burlington, VT

Home | Current Version | Previous Version | Text Only | Print | Product List | Glossary On
Versions: 1 2 3 4 5 6 7 8 9 10 11 12 13 14 15 16 17 18 19 20 21 22 23 24 25 26 27 28 29 30 31 32 33 34 35 36 37 38 39 40 41 42 43 44 45 46 47 48 49 50
000
ASUS41 KBTV 281810
RWRBTV
VERMONT REGIONAL WEATHER ROUNDUP
NATIONAL WEATHER SERVICE BURLINGTON VT
200 PM EDT TUE APR 28 2015

NOTE: "FAIR" INDICATES FEW OR NO CLOUDS BELOW 12,000 FEET WITH NO
SIGNIFICANT WEATHER AND/OR OBSTRUCTIONS TO VISIBILITY.

* THESE REPORTS ARE NOT UNDER NWS QUALITY CONTROL AND/OR DO NOT
  REPORT WEATHER SUCH AS PRECIPITATION AND FOG.

VTZ001>019-281900-
_____VERMONT_____


CITY           SKY/WX    TMP DP  RH WIND       PRES   REMARKS
BURLINGTON     MOCLDY    56  35  45 N18G25    29.86S
6HR MIN TEMP:  44; 6HR MAX TEMP:  56;

MONTPELIER     CLOUDY    51  31  46 NW15G23   29.84S
6HR MIN TEMP:  42; 6HR MAX TEMP:  52;

MORRISVILLE    CLOUDY    51  34  52 NW18G24   29.84S
6HR MIN TEMP:  43; 6HR MAX TEMP:  53;

ST. JOHNSBURY*   N/A     54  33  45 MISG      29.78S
6HR MIN TEMP:  44; 6HR MAX TEMP:  55;

LYNDONVILLE*   CLOUDY    51  31  47 NW15G24   29.81S
6HR MIN TEMP:  42; 6HR MAX TEMP:  53;

MIDDLEBURY*    MOCLDY    55  35  46 N16G25    29.84S
6HR MIN TEMP:  42; 6HR MAX TEMP:  55;

RUTLAND*       CLEAR    N/A N/A N/A NW18G26   29.80F
SPRINGFIELD    MOCLDY    57  33  40 NW13G23   29.75F
6HR MIN TEMP:  46; 6HR MAX TEMP:  59;

HIGHGATE*      CLOUDY    54  37  52 NW5       29.86F
6HR MIN TEMP:  45; 6HR MAX TEMP:  54;

NEWPORT*       CLOUDY    50  36  58 NW18      29.83S
6HR MIN TEMP:  39; 6HR MAX TEMP:  50;

BENNINGTON     MOCLDY    57  33  40 N18G28    29.79F
6HR MIN TEMP:  45; 6HR MAX TEMP:  57;

SUTTON*          N/A     50 N/A N/A MISG        N/A

_____LAKE CHAMPLAIN_____


CITY           SKY/WX    TMP DP  RH WIND       PRES   REMARKS

$$

NYZ007-026>031-035-052-083-281900-
_____NORTHERN NEW YORK_____


CITY           SKY/WX    TMP DP  RH WIND       PRES   REMARKS
PLATTSBURGH    CLOUDY    55  37  50 NE10      29.86F
6HR MIN TEMP:  46; 6HR MAX TEMP:  55;

SARANAC LAKE   MOCLDY    51  34  52 N10G20    29.85F
6HR MIN TEMP:  42; 6HR MAX TEMP:  53;

MASSENA        MOCLDY    63  39  41 VRB7      29.88F
6HR MIN TEMP:  50; 6HR MAX TEMP:  63;

OGDENSBURG*    MOCLDY    64  43  45 N3        29.88F
POTSDAM*       MOCLDY    59  41  51 N6        29.88F
WATERTOWN      CLOUDY    55  42  61 SW13      29.90S
6HR MIN TEMP:  48; 6HR MAX TEMP:  61;

FT DRUM        MOCLDY    59  41  51 N12       29.88F
6HR MIN TEMP:  47; 6HR MAX TEMP:  60; 6HR PCP: TRACE;

ALBANY         PTCLDY    63  34  33 NE16G25   29.79F
6HR MIN TEMP:  49; 6HR MAX TEMP:  64;

GLENS FALLS    CLEAR     60  34  37 N18G28    29.81F
6HR MIN TEMP:  47; 6HR MAX TEMP:  60;


$$
NHZ002-005-011-281900-
_____NEW HAMPSHIRE_____


CITY           SKY/WX    TMP DP  RH WIND       PRES   REMARKS
LEBANON        MOCLDY    59  31  34 N17G33    29.76F
6HR MIN TEMP:  48; 6HR MAX TEMP:  60;

KEENE          CLEAR     57  30  35 N18G25    29.74S
6HR MIN TEMP:  46; 6HR MAX TEMP:  57;

MT WASHINGTON  FOG       25  25 100 N37G46      N/A  VSB 1/16WCI   6
6HR MIN TEMP:  18; 6HR MAX TEMP:  25;

PLYMOUTH       MOCLDY    57  37  47 NW14G23   29.74R
6HR MIN TEMP:  46; 6HR MAX TEMP:  57;

WHITEFIELD     CLOUDY    52  32  46 N16G24    29.76F
6HR MIN TEMP:  41; 6HR MAX TEMP:  53;


$$

_____REGIONAL QUEBEC LOCATIONS_____


CITY           SKY/WX    TMP DP  RH WIND       PRES   REMARKS
MONTREAL       MOCLDY    59  39  47 SW10G17   29.85F
QUEBEC CITY    MOCLDY    57  41  54 S8        29.78F
SHERBROOKE     CLOUDY    50  36  57 N9G20     29.80F

_____REGIONAL ONTARIO LOCATIONS_____


CITY           SKY/WX    TMP DP  RH WIND       PRES   REMARKS
OTTAWA         PTCLDY    66  41  39 NW5G20    29.87F

______KEY______
VSB  - VISIBILITY IN MILES
WCI  - WIND CHILL INDEX
HX   - HEAT INDEX
$$



USA.gov is the U.S. government's official web portal to all federal, state and local government web resources and services.